GW3435 Weather Reports


time (UTC)temp
C
wind
direction
speed
KPH
gust
KPH
rain 1hr
cm
rain 24hr
cm
rain mn
cm
humidity
%
barometer
mb
20260508034029 12 251 0.0 0.0 0.00 0.03 0.00 92 1014.6
20260508033026 13 249 0.0 0.0 0.00 0.03 0.00 92 1014.4
20260508032021 13 249 0.0 0.0 0.00 0.03 0.00 92 1014.3
20260508031018 12 249 0.0 0.0 0.00 0.03 0.00 92 1014.4
20260508030034 12 249 0.0 0.0 0.00 0.03 0.00 92 1014.4
20260508025030 12 249 0.0 0.0 0.00 0.03 0.00 91 1014.3
20260508024026 12 249 0.0 0.0 0.00 0.03 0.00 91 1014.3
20260508023022 13 252 0.0 0.0 0.00 0.03 0.00 91 1014.2
20260508022018 12 245 0.0 0.0 0.00 0.03 0.00 91 1014.3
20260508021034 12 245 0.0 0.0 0.00 0.03 0.00 91 1014.4
20260508020030 13 242 0.0 0.0 0.00 0.03 0.00 91 1014.4
20260508015026 13 242 0.0 0.0 0.00 0.03 0.00 91 1014.4
20260508014022 13 242 0.0 0.0 0.00 0.03 0.00 91 1014.7
20260508013018 13 242 0.0 0.0 0.00 0.03 0.00 91 1014.7
20260508012034 13 242 0.0 0.0 0.00 0.03 0.00 91 1014.7
20260508011030 12 242 0.0 0.0 0.00 0.03 0.00 90 1014.8
20260508010047 12 242 0.0 0.0 0.00 0.03 0.00 90 1015.0
20260508005043 13 241 0.0 0.0 0.00 0.03 0.00 90 1015.0
20260508004018 13 241 0.0 0.0 0.00 0.03 0.00 90 1015.1
20260508003034 12 241 0.0 0.0 0.00 0.03 0.00 90 1015.2
20260508002031 13 241 0.0 0.0 0.00 0.03 0.00 89 1015.1
20260508001027 13 241 0.0 0.0 0.00 0.03 0.00 89 1015.3
20260508000023 13 241 0.0 0.0 0.00 0.03 0.00 89 1015.4
20260507235019 13 241 0.0 0.0 0.00 0.03 0.00 89 1015.3
20260507234035 13 241 0.0 0.0 0.00 0.03 0.00 89 1015.4
20260507233031 13 241 0.0 0.0 0.00 0.03 0.00 89 1015.5
20260507232027 13 241 0.0 0.0 0.00 0.03 0.00 88 1015.7
20260507231044 13 241 0.0 0.0 0.00 0.03 0.00 88 1015.7
20260507230020 13 241 0.0 0.0 0.00 0.03 0.00 88 1015.8
20260507225054 13 241 0.0 0.0 0.00 0.03 0.00 87 1015.8
20260507224024 13 241 0.0 0.0 0.00 0.03 0.00 87 1016.0
20260507223020 13 241 0.0 0.0 0.00 0.03 0.00 87 1016.0
20260507222016 13 233 0.0 0.0 0.00 0.03 0.00 87 1015.8
20260507221032 13 125 0.0 0.0 0.00 0.03 0.00 87 1015.9
20260507220028 13 253 0.0 0.0 0.00 0.03 0.00 86 1015.9
20260507215024 14 254 0.0 0.0 0.00 0.03 0.00 86 1015.7
20260507214039 14 231 0.0 0.0 0.00 0.03 0.00 86 1015.7
20260507213034 14 230 0.0 0.0 0.00 0.03 0.00 85 1015.6
20260507212030 14 230 0.0 0.0 0.00 0.03 0.00 85 1015.7
20260507211027 15 235 0.0 0.0 0.00 0.03 0.00 84 1015.6
20260507210022 15 241 0.0 0.0 0.00 0.03 0.03 84 1015.5
20260507205018 15 283 0.0 0.0 0.00 0.03 0.03 83 1015.5
20260507204034 15 99 0.0 0.0 0.00 0.03 0.03 83 1015.5
20260507203030 15 81 0.0 0.0 0.00 0.03 0.03 83 1015.5
20260507202026 15 261 0.0 0.0 0.00 0.03 0.03 82 1015.6
20260507201022 15 348 0.0 0.0 0.00 0.03 0.03 83 1015.5
20260507200018 15 45 0.0 1.6 0.00 0.03 0.03 83 1015.5
20260507195054 15 284 1.6 3.2 0.00 0.03 0.03 83 1015.4
20260507194050 15 221 0.0 0.0 0.00 0.03 0.03 83 1015.4
20260507193026 16 219 0.0 0.0 0.00 0.03 0.03 82 1015.5
20260507192022 16 219 0.0 0.0 0.00 0.03 0.03 81 1015.7
20260507191018 16 219 0.0 0.0 0.00 0.03 0.03 81 1015.7
20260507190034 16 204 0.0 0.0 0.00 0.03 0.03 80 1015.5
20260507185030 16 252 0.0 3.2 0.00 0.03 0.03 80 1015.6
20260507184025 17 232 0.0 0.0 0.00 0.03 0.03 79 1015.2
20260507183022 17 219 0.0 0.0 0.00 0.03 0.03 76 1015.0
20260507182018 17 91 1.6 4.8 0.00 0.03 0.03 75 1014.8
20260507181034 17 100 0.0 1.6 0.00 0.03 0.03 75 1014.8
20260507180029 18 75 0.0 0.0 0.00 0.03 0.03 74 1014.9
20260507175025 18 63 0.0 0.0 0.00 0.03 0.03 75 1014.8
20260507174021 18 63 0.0 0.0 0.00 0.03 0.03 75 1015.0
20260507173017 18 66 0.0 1.6 0.00 0.03 0.03 75 1014.9
20260507172113 18 43 0.0 0.0 0.00 0.03 0.03 74 1014.9
20260507171029 18 259 1.6 3.2 0.00 0.03 0.03 75 1015.0
20260507170025 18 301 1.6 3.2 0.00 0.03 0.03 74 1015.0
20260507165021 18 93 0.0 1.6 0.00 0.03 0.03 76 1014.8
20260507164017 19 101 0.0 3.2 0.00 0.03 0.03 78 1014.9
20260507163033 19 256 0.0 3.2 0.00 0.03 0.03 76 1015.1
20260507162049 20 275 0.0 0.0 0.00 0.03 0.03 74 1015.2
20260507161025 20 273 1.6 3.2 0.00 0.03 0.03 70 1015.3
20260507160021 20 239 0.0 1.6 0.00 0.03 0.03 69 1015.2
20260507155017 20 289 1.6 3.2 0.00 0.03 0.03 67 1015.2
20260507154054 20 224 0.0 0.0 0.00 0.03 0.03 70 1015.1
20260507153029 20 233 0.0 1.6 0.00 0.03 0.03 67 1015.0
20260507152024 20 290 1.6 4.8 0.00 0.03 0.03 66 1015.0
20260507151020 20 293 0.0 0.0 0.00 0.03 0.03 67 1015.1
20260507150116 20 291 0.0 3.2 0.00 0.03 0.03 69 1015.2
20260507145032 19 249 1.6 6.4 0.00 0.03 0.03 72 1015.2
20260507144027 19 285 1.6 4.8 0.00 0.03 0.03 74 1015.3
20260507143022 19 311 3.2 4.8 0.00 0.03 0.03 73 1015.4
20260507142059 19 290 1.6 3.2 0.00 0.03 0.03 71 1015.2
20260507141034 19 291 1.6 3.2 0.00 0.03 0.03 69 1015.2
20260507140050 19 64 1.6 3.2 0.00 0.03 0.03 71 1015.1
20260507135046 18 59 1.6 4.8 0.00 0.03 0.03 72 1015.2
20260507134022 19 33 3.2 6.4 0.00 0.03 0.03 72 1015.3
20260507133019 18 36 4.8 9.7 0.00 0.03 0.03 74 1015.3
20260507132054 18 78 3.2 6.4 0.00 0.03 0.03 72 1015.6
20260507131030 18 268 3.2 6.4 0.00 0.03 0.03 70 1015.8
20260507130026 18 298 4.8 9.7 0.00 0.03 0.03 71 1016.0
20260507125022 18 288 4.8 9.7 0.00 0.03 0.03 72 1016.2
20260507124018 18 304 1.6 3.2 0.03 0.03 0.03 72 1016.4
20260507123034 18 267 1.6 4.8 0.03 0.03 0.03 74 1016.6
20260507122029 17 253 1.6 6.4 0.03 0.03 0.03 75 1016.7
20260507121024 17 255 1.6 6.4 0.03 0.03 0.03 78 1016.7
20260507120032 18 41 0.0 3.2 0.03 0.03 0.03 79 1016.7
20260507115035 18 241 0.0 1.6 0.03 0.03 0.03 74 1016.7
20260507114031 18 277 1.6 6.4 0.00 0.00 0.00 72 1016.7
20260507113059 18 270 0.0 3.2 0.00 0.00 0.00 71 1016.8
20260507112023 19 332 1.6 4.8 0.00 0.00 0.00 70 1016.8
20260507111018 18 315 0.0 1.6 0.00 0.00 0.00 70 1016.9
20260507110033 18 347 1.6 3.2 0.00 0.00 0.00 74 1016.9
20260507105027 18 37 1.6 3.2 0.00 0.00 0.00 74 1016.8
20260507104035 18 40 0.0 1.6 0.00 0.00 0.00 73 1016.7
20260507103036 18 15 0.0 3.2 0.00 0.00 0.00 73 1016.5
20260507102021 18 62 1.6 1.6 0.00 0.00 0.00 72 1016.6
20260507101520 18 46 0.0 3.2 0.00 0.00 0.00 72 1016.6
20260507100534 17 52 3.2 4.8 0.00 0.00 0.00 71 1016.4
20260507095530 17 39 0.0 3.2 0.00 0.00 0.00 70 1016.4
20260507094526 17 52 3.2 4.8 0.00 0.00 0.00 71 1016.3
20260507093521 18 59 1.6 4.8 0.00 0.00 0.00 72 1016.3
20260507092516 18 42 3.2 4.8 0.00 0.00 0.00 70 1016.3
20260507091552 18 45 3.2 9.7 0.00 0.00 0.00 65 1016.0
20260507090527 18 50 4.8 12.9 0.00 0.00 0.00 65 1016.0
20260507085542 18 48 6.4 12.9 0.00 0.00 0.00 68 1016.0
20260507084538 18 45 3.2 9.7 0.00 0.00 0.00 67 1015.9
20260507083534 18 41 8.0 12.9 0.00 0.00 0.00 70 1015.7
20260507082531 17 34 12.9 17.7 0.00 0.00 0.00 71 1015.7
20260507081545 17 43 8.0 14.5 0.00 0.00 0.00 70 1015.6
20260507080520 17 46 11.3 17.7 0.00 0.00 0.00 72 1015.6
20260507075536 18 48 11.3 16.1 0.00 0.00 0.00 70 1015.5
20260507074551 17 47 8.0 14.5 0.00 0.00 0.00 73 1015.6
20260507073526 17 38 11.3 17.7 0.00 0.00 0.00 73 1015.6
20260507072521 18 55 8.0 14.5 0.00 0.00 0.00 72 1015.5
20260507071535 17 65 4.8 9.7 0.00 0.00 0.00 74 1015.4
20260507071018 17 38 9.7 14.5 0.00 0.00 0.00 74 1015.5
20260507070026 16 41 9.7 14.5 0.00 0.00 0.00 77 1015.5
20260507065021 16 50 6.4 12.9 0.00 0.00 0.00 77 1015.7
20260507064017 16 43 3.2 6.4 0.00 0.00 0.00 75 1015.7
20260507063033 16 35 1.6 9.7 0.00 0.00 0.00 75 1015.5
20260507062029 16 26 1.6 6.4 0.00 0.00 0.00 75 1015.5
20260507061024 16 46 1.6 4.8 0.00 0.00 0.00 76 1015.4
20260507060020 16 46 3.2 6.4 0.00 0.00 0.00 77 1015.5
20260507055016 16 42 3.2 4.8 0.00 0.00 0.00 76 1015.4
20260507054032 16 21 0.0 1.6 0.00 0.00 0.00 76 1015.5
20260507053048 15 272 0.0 1.6 0.00 0.00 0.00 79 1015.4
20260507052044 16 232 0.0 0.0 0.00 0.00 0.00 81 1015.4
20260507051019 15 230 0.0 0.0 0.00 0.00 0.00 85 1015.4
20260507050056 15 214 0.0 0.0 0.00 0.00 0.00 89 1015.4
20260507045032 13 214 0.0 0.0 0.00 0.00 0.00 90 1015.3
20260507044047 13 214 0.0 0.0 0.00 0.00 0.00 91 1015.1
20260507043023 12 214 0.0 0.0 0.00 0.00 0.00 91 1015.0
20260507042019 12 209 0.0 0.0 0.00 0.00 0.00 91 1015.1
20260507041035 12 209 0.0 0.0 0.00 0.00 0.00 91 1015.1
20260507040030 12 210 0.0 0.0 0.00 0.00 0.00 92 1014.9
20260507035026 11 208 0.0 0.0 0.00 0.00 0.00 92 1014.8